| time (UTC) | temp F | wind direction | speed MPH | gust MPH | rain 1hr in | rain 24hr in | rain mn in | humidity % | barometer mb |
| 20260510010533 | 60 | 0 | 0.0 | 0.0 | 0.00 | 0.00 | 0.00 | 83 | 1013.9 |
| 20260510010044 | 60 | 0 | 0.0 | 0.0 | 0.00 | 0.00 | 0.00 | 84 | 1013.6 |
| 20260510005532 | 60 | 0 | 0.0 | 0.0 | 0.00 | 0.00 | 0.00 | 83 | 1013.6 |
| 20260510005035 | 61 | 0 | 0.0 | 1.0 | 0.00 | 0.00 | 0.00 | 82 | 1013.6 |
| 20260510004543 | 61 | 0 | 0.0 | 1.0 | 0.00 | 0.00 | 0.00 | 82 | 1013.5 |
| 20260510004034 | 61 | 0 | 0.0 | 1.0 | 0.00 | 0.00 | 0.00 | 81 | 1013.5 |
| 20260510003534 | 62 | 0 | 0.0 | 1.0 | 0.00 | 0.00 | 0.00 | 80 | 1013.4 |
| 20260510003051 | 62 | 259 | 0.0 | 0.0 | 0.00 | 0.00 | 0.00 | 79 | 1013.4 |
| 20260510002533 | 63 | 0 | 0.0 | 0.0 | 0.00 | 0.00 | 0.00 | 78 | 1013.4 |
| 20260510002034 | 63 | 0 | 0.0 | 1.0 | 0.00 | 0.00 | 0.00 | 78 | 1013.4 |
| 20260510001547 | 63 | 0 | 0.0 | 1.0 | 0.00 | 0.00 | 0.00 | 77 | 1013.2 |
| 20260510001034 | 63 | 0 | 0.0 | 1.0 | 0.00 | 0.00 | 0.00 | 76 | 1013.2 |
| 20260510000533 | 64 | 0 | 0.0 | 1.0 | 0.00 | 0.00 | 0.00 | 76 | 1013.2 |
| 20260510000053 | 64 | 0 | 0.0 | 2.0 | 0.00 | 0.00 | 0.00 | 75 | 1013.2 |
| 20260509235535 | 64 | 0 | 0.0 | 2.0 | 0.00 | 0.00 | 0.00 | 74 | 1012.8 |
| 20260509235035 | 65 | 258 | 0.0 | 1.0 | 0.00 | 0.00 | 0.00 | 75 | 1012.8 |
| 20260509234555 | 65 | 0 | 0.0 | 4.0 | 0.00 | 0.00 | 0.00 | 74 | 1012.8 |
| 20260509234033 | 66 | 0 | 0.0 | 4.0 | 0.00 | 0.00 | 0.00 | 71 | 1012.8 |
| 20260509233535 | 66 | 257 | 1.0 | 4.0 | 0.00 | 0.00 | 0.00 | 70 | 1012.6 |
| 20260509233048 | 66 | 259 | 1.0 | 7.0 | 0.00 | 0.00 | 0.00 | 69 | 1012.4 |
| 20260509232535 | 66 | 262 | 2.0 | 7.0 | 0.00 | 0.00 | 0.00 | 68 | 1012.5 |
| 20260509232031 | 67 | 253 | 3.0 | 7.0 | 0.00 | 0.00 | 0.00 | 68 | 1012.4 |
| 20260509231543 | 67 | 257 | 2.0 | 8.0 | 0.00 | 0.00 | 0.00 | 68 | 1012.3 |
| 20260509231034 | 67 | 260 | 2.0 | 8.0 | 0.00 | 0.00 | 0.00 | 67 | 1012.3 |
| 20260509230534 | 67 | 253 | 2.0 | 9.0 | 0.00 | 0.00 | 0.00 | 67 | 1012.3 |
| 20260509230048 | 67 | 251 | 2.0 | 9.0 | 0.00 | 0.00 | 0.00 | 67 | 1012.1 |
| 20260509225533 | 67 | 252 | 2.0 | 9.0 | 0.00 | 0.00 | 0.00 | 67 | 1012.1 |
| 20260509225034 | 67 | 246 | 2.0 | 9.0 | 0.00 | 0.00 | 0.00 | 66 | 1012.0 |
| 20260509224545 | 67 | 257 | 1.0 | 8.0 | 0.00 | 0.00 | 0.00 | 67 | 1012.1 |
| 20260509224032 | 67 | 260 | 2.0 | 8.0 | 0.00 | 0.00 | 0.00 | 67 | 1012.0 |
| 20260509223533 | 67 | 251 | 2.0 | 9.0 | 0.00 | 0.00 | 0.00 | 65 | 1012.0 |
| 20260509223047 | 68 | 231 | 3.0 | 9.0 | 0.00 | 0.00 | 0.00 | 66 | 1012.0 |
| 20260509222536 | 67 | 254 | 1.0 | 9.0 | 0.00 | 0.00 | 0.00 | 67 | 1012.0 |
| 20260509222035 | 68 | 256 | 2.0 | 9.0 | 0.00 | 0.00 | 0.00 | 65 | 1012.0 |
| 20260509221541 | 68 | 265 | 2.0 | 9.0 | 0.00 | 0.00 | 0.00 | 65 | 1012.1 |
| 20260509221033 | 68 | 261 | 2.0 | 6.0 | 0.00 | 0.00 | 0.00 | 65 | 1012.1 |
| 20260509220533 | 68 | 261 | 2.0 | 9.0 | 0.00 | 0.00 | 0.00 | 64 | 1012.0 |
| 20260509220043 | 68 | 240 | 1.0 | 9.0 | 0.00 | 0.00 | 0.00 | 64 | 1012.1 |
| 20260509215533 | 68 | 263 | 4.0 | 9.0 | 0.00 | 0.00 | 0.00 | 63 | 1011.9 |
| 20260509215033 | 68 | 258 | 3.0 | 9.0 | 0.00 | 0.00 | 0.00 | 63 | 1012.0 |
| 20260509214550 | 68 | 250 | 2.0 | 9.0 | 0.00 | 0.00 | 0.00 | 62 | 1012.0 |
| 20260509214032 | 69 | 255 | 3.0 | 9.0 | 0.00 | 0.00 | 0.00 | 60 | 1011.9 |
| 20260509213532 | 69 | 249 | 4.0 | 9.0 | 0.00 | 0.00 | 0.00 | 60 | 1012.0 |
| 20260509213055 | 69 | 259 | 3.0 | 11.0 | 0.00 | 0.00 | 0.00 | 62 | 1012.2 |
| 20260509212536 | 69 | 247 | 4.0 | 11.0 | 0.00 | 0.00 | 0.00 | 60 | 1011.9 |
| 20260509212034 | 69 | 250 | 4.0 | 8.0 | 0.00 | 0.00 | 0.00 | 61 | 1011.8 |
| 20260509211543 | 69 | 234 | 2.0 | 10.0 | 0.00 | 0.00 | 0.00 | 60 | 1011.8 |
| 20260509211033 | 69 | 247 | 3.0 | 12.0 | 0.00 | 0.00 | 0.00 | 61 | 1011.6 |
| 20260509210536 | 69 | 242 | 3.0 | 12.0 | 0.00 | 0.00 | 0.00 | 60 | 1011.5 |
| 20260509210047 | 69 | 273 | 4.0 | 12.0 | 0.00 | 0.00 | 0.00 | 59 | 1011.3 |
| 20260509205532 | 69 | 255 | 3.0 | 10.0 | 0.00 | 0.00 | 0.00 | 59 | 1011.3 |
| 20260509205037 | 69 | 252 | 3.0 | 8.0 | 0.00 | 0.00 | 0.00 | 58 | 1011.4 |
| 20260509204545 | 69 | 261 | 3.0 | 9.0 | 0.00 | 0.00 | 0.00 | 58 | 1011.3 |
| 20260509204033 | 69 | 278 | 3.0 | 10.0 | 0.00 | 0.00 | 0.00 | 61 | 1011.4 |
| 20260509203534 | 69 | 242 | 3.0 | 12.0 | 0.00 | 0.00 | 0.00 | 59 | 1011.4 |
| 20260509203043 | 69 | 254 | 4.0 | 12.0 | 0.00 | 0.00 | 0.00 | 61 | 1011.4 |
| 20260509202532 | 70 | 260 | 1.0 | 8.0 | 0.00 | 0.00 | 0.00 | 65 | 1011.5 |
| 20260509202036 | 69 | 254 | 2.0 | 8.0 | 0.00 | 0.00 | 0.00 | 66 | 1011.6 |
| 20260509201553 | 69 | 261 | 2.0 | 8.0 | 0.00 | 0.00 | 0.00 | 64 | 1011.5 |
| 20260509201032 | 68 | 261 | 2.0 | 12.0 | 0.00 | 0.00 | 0.00 | 67 | 1011.5 |
| 20260509200535 | 68 | 260 | 2.0 | 12.0 | 0.00 | 0.00 | 0.00 | 66 | 1011.4 |
| 20260509200052 | 68 | 269 | 3.0 | 12.0 | 0.00 | 0.00 | 0.00 | 65 | 1011.6 |
| 20260509195533 | 68 | 275 | 3.0 | 9.0 | 0.00 | 0.00 | 0.00 | 64 | 1011.7 |
| 20260509195031 | 68 | 247 | 2.0 | 10.0 | 0.00 | 0.00 | 0.00 | 64 | 1011.6 |
| 20260509194546 | 68 | 265 | 3.0 | 10.0 | 0.00 | 0.00 | 0.00 | 63 | 1011.7 |
| 20260509194033 | 69 | 258 | 3.0 | 10.0 | 0.00 | 0.00 | 0.00 | 63 | 1011.6 |
| 20260509193533 | 69 | 250 | 3.0 | 11.0 | 0.00 | 0.00 | 0.00 | 63 | 1011.7 |
| 20260509193107 | 69 | 254 | 3.0 | 11.0 | 0.00 | 0.00 | 0.00 | 65 | 1011.6 |
| 20260509192532 | 68 | 248 | 5.0 | 11.0 | 0.00 | 0.00 | 0.00 | 64 | 1011.6 |
| 20260509192032 | 68 | 250 | 3.0 | 9.0 | 0.00 | 0.00 | 0.00 | 66 | 1011.5 |
| 20260509191544 | 68 | 243 | 3.0 | 9.0 | 0.00 | 0.00 | 0.00 | 63 | 1011.7 |
| 20260509191035 | 68 | 265 | 3.0 | 9.0 | 0.00 | 0.00 | 0.00 | 64 | 1011.7 |
| 20260509190534 | 68 | 245 | 2.0 | 10.0 | 0.00 | 0.00 | 0.00 | 66 | 1011.8 |
| 20260509190043 | 68 | 0 | 2.0 | 10.0 | 0.00 | 0.00 | 0.00 | 65 | 1011.7 |
| 20260509185534 | 68 | 261 | 3.0 | 10.0 | 0.00 | 0.00 | 0.00 | 65 | 1012.1 |
| 20260509185033 | 68 | 223 | 4.0 | 10.0 | 0.00 | 0.00 | 0.00 | 64 | 1012.3 |
| 20260509184550 | 68 | 245 | 2.0 | 9.0 | 0.00 | 0.00 | 0.00 | 66 | 1012.1 |
| 20260509184034 | 68 | 263 | 2.0 | 9.0 | 0.00 | 0.00 | 0.00 | 66 | 1012.1 |
| 20260509183537 | 68 | 263 | 2.0 | 8.0 | 0.00 | 0.00 | 0.00 | 66 | 1012.0 |
| 20260509183050 | 68 | 253 | 2.0 | 9.0 | 0.00 | 0.00 | 0.00 | 66 | 1011.8 |
| 20260509182535 | 68 | 256 | 2.0 | 9.0 | 0.00 | 0.00 | 0.00 | 64 | 1011.8 |
| 20260509182035 | 68 | 263 | 1.0 | 8.0 | 0.00 | 0.00 | 0.00 | 66 | 1011.7 |
| 20260509181548 | 68 | 252 | 2.0 | 8.0 | 0.00 | 0.00 | 0.00 | 65 | 1011.8 |
| 20260509181036 | 68 | 259 | 2.0 | 6.0 | 0.00 | 0.00 | 0.00 | 66 | 1011.4 |
| 20260509180536 | 68 | 312 | 2.0 | 8.0 | 0.00 | 0.00 | 0.00 | 65 | 1011.7 |
| 20260509180046 | 68 | 261 | 2.0 | 9.0 | 0.00 | 0.00 | 0.00 | 63 | 1011.9 |
| 20260509175536 | 68 | 245 | 2.0 | 9.0 | 0.00 | 0.00 | 0.00 | 66 | 1012.0 |
| 20260509175036 | 68 | 262 | 3.0 | 10.0 | 0.00 | 0.00 | 0.00 | 64 | 1012.1 |
| 20260509174544 | 68 | 206 | 3.0 | 10.0 | 0.00 | 0.00 | 0.00 | 65 | 1012.4 |
| 20260509174035 | 68 | 270 | 3.0 | 10.0 | 0.00 | 0.00 | 0.00 | 64 | 1012.4 |
| 20260509173536 | 68 | 257 | 2.0 | 8.0 | 0.00 | 0.00 | 0.00 | 65 | 1012.1 |
| 20260509173101 | 68 | 268 | 0.0 | 8.0 | 0.00 | 0.00 | 0.00 | 66 | 1012.3 |
| 20260509172536 | 67 | 248 | 2.0 | 8.0 | 0.00 | 0.00 | 0.00 | 67 | 1012.4 |
| 20260509172034 | 67 | 238 | 3.0 | 10.0 | 0.00 | 0.00 | 0.00 | 67 | 1012.5 |
| 20260509171603 | 67 | 252 | 3.0 | 10.0 | 0.00 | 0.00 | 0.00 | 67 | 1012.5 |
| 20260509171035 | 67 | 258 | 3.0 | 9.0 | 0.00 | 0.00 | 0.00 | 69 | 1012.5 |
| 20260509170535 | 66 | 271 | 2.0 | 7.0 | 0.00 | 0.00 | 0.00 | 70 | 1012.6 |
| 20260509170047 | 67 | 266 | 2.0 | 9.0 | 0.00 | 0.00 | 0.00 | 69 | 1012.6 |
| 20260509165533 | 66 | 273 | 1.0 | 10.0 | 0.00 | 0.00 | 0.00 | 71 | 1012.5 |
| 20260509165035 | 65 | 256 | 4.0 | 10.0 | 0.00 | 0.00 | 0.00 | 71 | 1012.7 |
| 20260509164549 | 65 | 184 | 2.0 | 9.0 | 0.00 | 0.00 | 0.00 | 72 | 1012.7 |
| 20260509164033 | 64 | 273 | 1.0 | 11.0 | 0.00 | 0.00 | 0.00 | 73 | 1013.0 |
| 20260509163534 | 65 | 258 | 2.0 | 11.0 | 0.00 | 0.00 | 0.00 | 74 | 1013.2 |
| 20260509163045 | 64 | 153 | 1.0 | 10.0 | 0.00 | 0.00 | 0.00 | 72 | 1013.3 |
| 20260509162535 | 65 | 271 | 4.0 | 10.0 | 0.00 | 0.00 | 0.00 | 71 | 1013.3 |
| 20260509162037 | 64 | 248 | 2.0 | 9.0 | 0.00 | 0.00 | 0.00 | 75 | 1013.3 |
| 20260509161541 | 64 | 255 | 4.0 | 9.0 | 0.00 | 0.00 | 0.00 | 75 | 1013.1 |
| 20260509161034 | 63 | 227 | 1.0 | 9.0 | 0.00 | 0.00 | 0.00 | 77 | 1013.1 |
| 20260509160534 | 63 | 262 | 2.0 | 9.0 | 0.00 | 0.00 | 0.00 | 77 | 1013.3 |
| 20260509160047 | 63 | 250 | 3.0 | 9.0 | 0.00 | 0.00 | 0.00 | 78 | 1013.4 |
| 20260509155533 | 62 | 257 | 2.0 | 9.0 | 0.00 | 0.00 | 0.00 | 78 | 1013.3 |
| 20260509155033 | 62 | 258 | 2.0 | 9.0 | 0.00 | 0.00 | 0.00 | 79 | 1013.4 |
| 20260509154549 | 62 | 261 | 4.0 | 9.0 | 0.00 | 0.00 | 0.00 | 78 | 1013.2 |
| 20260509154034 | 62 | 246 | 2.0 | 9.0 | 0.00 | 0.00 | 0.00 | 81 | 1013.3 |
| 20260509153533 | 61 | 259 | 1.0 | 9.0 | 0.00 | 0.00 | 0.00 | 80 | 1013.4 |
| 20260509153044 | 61 | 254 | 3.0 | 7.0 | 0.00 | 0.00 | 0.00 | 82 | 1013.4 |
| 20260509152534 | 61 | 255 | 2.0 | 10.0 | 0.00 | 0.00 | 0.00 | 82 | 1013.5 |
| 20260509152034 | 60 | 259 | 1.0 | 10.0 | 0.00 | 0.00 | 0.00 | 82 | 1013.5 |
| 20260509151544 | 61 | 257 | 1.0 | 4.0 | 0.00 | 0.00 | 0.00 | 83 | 1013.5 |
| 20260509151034 | 60 | 249 | 1.0 | 4.0 | 0.00 | 0.00 | 0.00 | 83 | 1013.5 |
| 20260509150534 | 60 | 0 | 0.0 | 4.0 | 0.00 | 0.00 | 0.00 | 84 | 1013.5 |
| 20260509145533 | 59 | 257 | 2.0 | 5.0 | 0.00 | 0.00 | 0.00 | 84 | 1013.4 |
| 20260509145036 | 59 | 252 | 1.0 | 5.0 | 0.00 | 0.00 | 0.00 | 86 | 1013.2 |
| 20260509144644 | 58 | 0 | 0.0 | 3.0 | 0.00 | 0.00 | 0.00 | 87 | 1013.2 |
| 20260509144037 | 58 | 0 | 1.0 | 3.0 | 0.00 | 0.00 | 0.00 | 87 | 1013.1 |
| 20260509143534 | 58 | 278 | 0.0 | 3.0 | 0.00 | 0.00 | 0.00 | 89 | 1013.0 |
| 20260509143050 | 57 | 281 | 0.0 | 3.0 | 0.00 | 0.00 | 0.00 | 90 | 1012.9 |
| 20260509142536 | 57 | 0 | 0.0 | 1.0 | 0.00 | 0.00 | 0.00 | 91 | 1012.9 |
| 20260509142035 | 56 | 0 | 0.0 | 1.0 | 0.00 | 0.00 | 0.00 | 92 | 1012.8 |
| 20260509141550 | 56 | 0 | 0.0 | 0.0 | 0.00 | 0.00 | 0.00 | 93 | 1012.8 |
| 20260509141035 | 55 | 0 | 0.0 | 0.0 | 0.00 | 0.00 | 0.00 | 93 | 1013.0 |
| 20260509140535 | 55 | 0 | 0.0 | 0.0 | 0.00 | 0.00 | 0.00 | 93 | 1013.1 |
| 20260509140043 | 55 | 0 | 0.0 | 0.0 | 0.00 | 0.00 | 0.00 | 93 | 1012.9 |
| 20260509135534 | 55 | 0 | 0.0 | 0.0 | 0.00 | 0.00 | 0.00 | 93 | 1012.9 |
| 20260509135034 | 55 | 0 | 0.0 | 0.0 | 0.00 | 0.00 | 0.00 | 93 | 1012.8 |
| 20260509134549 | 54 | 0 | 0.0 | 0.0 | 0.00 | 0.00 | 0.00 | 94 | 1012.9 |
| 20260509134033 | 54 | 0 | 0.0 | 0.0 | 0.00 | 0.00 | 0.00 | 93 | 1012.8 |
| 20260509133536 | 54 | 0 | 0.0 | 0.0 | 0.00 | 0.00 | 0.00 | 93 | 1012.8 |
| 20260509133052 | 54 | 0 | 0.0 | 0.0 | 0.00 | 0.00 | 0.00 | 93 | 1012.8 |
| 20260509132533 | 54 | 0 | 0.0 | 0.0 | 0.00 | 0.00 | 0.00 | 94 | 1012.9 |
| 20260509132036 | 54 | 0 | 0.0 | 0.0 | 0.00 | 0.00 | 0.00 | 94 | 1012.8 |
| 20260509131546 | 54 | 0 | 0.0 | 0.0 | 0.00 | 0.00 | 0.00 | 93 | 1012.8 |
| 20260509131033 | 53 | 0 | 0.0 | 0.0 | 0.00 | 0.00 | 0.00 | 93 | 1012.8 |
| 20260509130534 | 53 | 0 | 0.0 | 0.0 | 0.00 | 0.00 | 0.00 | 93 | 1012.7 |
| 20260509130045 | 53 | 0 | 0.0 | 0.0 | 0.00 | 0.00 | 0.00 | 93 | 1012.7 |
| 20260509125533 | 53 | 0 | 0.0 | 0.0 | 0.00 | 0.00 | 0.00 | 94 | 1012.8 |
| 20260509125034 | 53 | 0 | 0.0 | 0.0 | 0.00 | 0.00 | 0.00 | 94 | 1012.7 |
| 20260509124558 | 53 | 0 | 0.0 | 0.0 | 0.00 | 0.00 | 0.00 | 94 | 1012.6 |
| 20260509124036 | 53 | 0 | 0.0 | 0.0 | 0.00 | 0.00 | 0.00 | 94 | 1012.8 |
| 20260509123533 | 53 | 0 | 0.0 | 0.0 | 0.00 | 0.00 | 0.00 | 94 | 1012.6 |
| 20260509123102 | 53 | 0 | 0.0 | 0.0 | 0.00 | 0.00 | 0.00 | 94 | 1012.7 |
| 20260509122534 | 53 | 0 | 0.0 | 0.0 | 0.00 | 0.00 | 0.00 | 94 | 1012.7 |
| 20260509122034 | 53 | 0 | 0.0 | 0.0 | 0.00 | 0.00 | 0.00 | 94 | 1012.6 |
| 20260509121545 | 53 | 0 | 0.0 | 0.0 | 0.00 | 0.00 | 0.00 | 94 | 1012.5 |
| 20260509121036 | 53 | 0 | 0.0 | 0.0 | 0.00 | 0.00 | 0.00 | 94 | 1012.5 |
| 20260509120534 | 52 | 0 | 0.0 | 0.0 | 0.00 | 0.00 | 0.00 | 94 | 1012.7 |
| 20260509120054 | 52 | 0 | 0.0 | 0.0 | 0.00 | 0.00 | 0.00 | 94 | 1012.8 |
| 20260509115535 | 52 | 0 | 0.0 | 0.0 | 0.00 | 0.00 | 0.00 | 94 | 1012.8 |
| 20260509115034 | 52 | 0 | 0.0 | 0.0 | 0.00 | 0.00 | 0.00 | 94 | 1012.9 |
| 20260509114544 | 52 | 0 | 0.0 | 0.0 | 0.00 | 0.00 | 0.00 | 94 | 1013.1 |
| 20260509114034 | 52 | 0 | 0.0 | 0.0 | 0.00 | 0.00 | 0.00 | 94 | 1012.9 |
| 20260509113541 | 52 | 0 | 0.0 | 0.0 | 0.00 | 0.00 | 0.00 | 94 | 1013.1 |
| 20260509113045 | 52 | 0 | 0.0 | 0.0 | 0.00 | 0.00 | 0.00 | 94 | 1013.1 |
| 20260509112533 | 52 | 0 | 0.0 | 0.0 | 0.00 | 0.00 | 0.00 | 94 | 1013.1 |
| 20260509112033 | 51 | 0 | 0.0 | 0.0 | 0.00 | 0.00 | 0.00 | 94 | 1013.2 |
| 20260509111543 | 51 | 0 | 0.0 | 0.0 | 0.00 | 0.00 | 0.00 | 94 | 1013.1 |
| 20260509111036 | 51 | 0 | 0.0 | 0.0 | 0.00 | 0.00 | 0.00 | 94 | 1013.1 |
| 20260509110534 | 51 | 0 | 0.0 | 0.0 | 0.00 | 0.00 | 0.00 | 94 | 1013.1 |
| 20260509110049 | 51 | 0 | 0.0 | 0.0 | 0.00 | 0.00 | 0.00 | 94 | 1013.0 |
| 20260509105533 | 51 | 0 | 0.0 | 0.0 | 0.00 | 0.00 | 0.00 | 94 | 1012.8 |
| 20260509105034 | 51 | 0 | 0.0 | 0.0 | 0.00 | 0.00 | 0.00 | 94 | 1013.0 |
| 20260509104548 | 50 | 0 | 0.0 | 0.0 | 0.00 | 0.00 | 0.00 | 94 | 1012.8 |
| 20260509104033 | 50 | 0 | 0.0 | 0.0 | 0.00 | 0.00 | 0.00 | 93 | 1012.6 |
| 20260509103535 | 50 | 0 | 0.0 | 0.0 | 0.00 | 0.00 | 0.00 | 94 | 1012.8 |
| 20260509103047 | 50 | 0 | 0.0 | 0.0 | 0.00 | 0.00 | 0.00 | 94 | 1012.6 |
| 20260509102534 | 50 | 0 | 0.0 | 0.0 | 0.00 | 0.00 | 0.00 | 94 | 1012.5 |
| 20260509102034 | 50 | 0 | 0.0 | 0.0 | 0.00 | 0.00 | 0.00 | 94 | 1012.5 |
| 20260509101551 | 50 | 0 | 0.0 | 0.0 | 0.00 | 0.00 | 0.00 | 94 | 1012.7 |
| 20260509101033 | 50 | 0 | 0.0 | 0.0 | 0.00 | 0.00 | 0.00 | 93 | 1012.6 |
| 20260509100533 | 50 | 0 | 0.0 | 0.0 | 0.00 | 0.00 | 0.00 | 93 | 1012.5 |
| 20260509100055 | 50 | 0 | 0.0 | 0.0 | 0.00 | 0.00 | 0.00 | 93 | 1012.6 |
| 20260509095532 | 50 | 0 | 0.0 | 0.0 | 0.00 | 0.00 | 0.00 | 93 | 1012.8 |
| 20260509095033 | 50 | 0 | 0.0 | 0.0 | 0.00 | 0.00 | 0.00 | 93 | 1012.8 |
| 20260509094551 | 50 | 0 | 0.0 | 0.0 | 0.00 | 0.00 | 0.00 | 93 | 1012.9 |
| 20260509094034 | 49 | 0 | 0.0 | 0.0 | 0.00 | 0.00 | 0.00 | 93 | 1013.1 |
| 20260509093534 | 49 | 0 | 0.0 | 0.0 | 0.00 | 0.00 | 0.00 | 93 | 1013.1 |
| 20260509093045 | 49 | 0 | 0.0 | 0.0 | 0.00 | 0.00 | 0.00 | 93 | 1013.1 |
| 20260509092533 | 49 | 0 | 0.0 | 0.0 | 0.00 | 0.00 | 0.00 | 93 | 1013.0 |
| 20260509092033 | 49 | 0 | 0.0 | 0.0 | 0.00 | 0.00 | 0.00 | 93 | 1012.9 |
| 20260509091545 | 49 | 0 | 0.0 | 0.0 | 0.00 | 0.00 | 0.00 | 93 | 1013.0 |
| 20260509091033 | 50 | 0 | 0.0 | 0.0 | 0.00 | 0.00 | 0.00 | 92 | 1012.8 |
| 20260509090539 | 50 | 0 | 0.0 | 0.0 | 0.00 | 0.00 | 0.00 | 93 | 1012.6 |
| 20260509090048 | 50 | 0 | 0.0 | 0.0 | 0.00 | 0.00 | 0.00 | 93 | 1012.7 |
| 20260509085533 | 50 | 0 | 0.0 | 0.0 | 0.00 | 0.00 | 0.00 | 93 | 1012.5 |
| 20260509085036 | 50 | 0 | 0.0 | 0.0 | 0.00 | 0.00 | 0.00 | 93 | 1012.6 |
| 20260509084541 | 50 | 0 | 0.0 | 0.0 | 0.00 | 0.00 | 0.00 | 93 | 1012.7 |
| 20260509084035 | 50 | 0 | 0.0 | 0.0 | 0.00 | 0.00 | 0.00 | 93 | 1012.7 |
| 20260509083533 | 50 | 0 | 0.0 | 0.0 | 0.00 | 0.00 | 0.00 | 93 | 1012.5 |
| 20260509083044 | 50 | 0 | 0.0 | 0.0 | 0.00 | 0.00 | 0.00 | 93 | 1012.5 |
| 20260509082534 | 50 | 0 | 0.0 | 0.0 | 0.00 | 0.00 | 0.00 | 93 | 1012.4 |
| 20260509082034 | 50 | 0 | 0.0 | 0.0 | 0.00 | 0.00 | 0.00 | 93 | 1012.4 |
| 20260509081548 | 50 | 0 | 0.0 | 0.0 | 0.00 | 0.00 | 0.00 | 93 | 1012.4 |
| 20260509081036 | 50 | 0 | 0.0 | 0.0 | 0.00 | 0.00 | 0.00 | 93 | 1012.4 |
| 20260509080533 | 50 | 0 | 0.0 | 0.0 | 0.00 | 0.00 | 0.00 | 93 | 1012.3 |
| 20260509080046 | 50 | 0 | 0.0 | 0.0 | 0.00 | 0.00 | 0.00 | 93 | 1012.4 |
| 20260509075533 | 50 | 0 | 0.0 | 0.0 | 0.00 | 0.00 | 0.00 | 93 | 1012.5 |
| 20260509075033 | 49 | 0 | 0.0 | 0.0 | 0.00 | 0.00 | 0.00 | 92 | 1012.5 |
| 20260509074545 | 49 | 0 | 0.0 | 0.0 | 0.00 | 0.00 | 0.00 | 92 | 1012.8 |
| 20260509074033 | 49 | 0 | 0.0 | 0.0 | 0.00 | 0.00 | 0.00 | 92 | 1012.9 |
| 20260509073533 | 49 | 0 | 0.0 | 0.0 | 0.00 | 0.00 | 0.00 | 92 | 1012.8 |
| 20260509073042 | 49 | 0 | 0.0 | 0.0 | 0.00 | 0.00 | 0.00 | 92 | 1012.7 |
| 20260509072539 | 49 | 0 | 0.0 | 0.0 | 0.00 | 0.00 | 0.00 | 92 | 1012.7 |
| 20260509072035 | 49 | 0 | 0.0 | 0.0 | 0.00 | 0.00 | 0.00 | 92 | 1012.8 |
| 20260509071555 | 49 | 0 | 0.0 | 0.0 | 0.00 | 0.00 | 0.00 | 92 | 1012.9 |
| 20260509071037 | 50 | 0 | 0.0 | 0.0 | 0.00 | 0.00 | 0.00 | 92 | 1013.1 |
| 20260509070536 | 50 | 0 | 0.0 | 0.0 | 0.00 | 0.00 | 0.00 | 92 | 1013.2 |
| 20260509070046 | 49 | 0 | 0.0 | 0.0 | 0.00 | 0.00 | 0.00 | 92 | 1013.1 |
| 20260509065536 | 49 | 0 | 0.0 | 0.0 | 0.00 | 0.00 | 0.00 | 92 | 1013.1 |
| 20260509065033 | 49 | 0 | 0.0 | 0.0 | 0.00 | 0.00 | 0.00 | 92 | 1013.3 |
| 20260509064545 | 50 | 0 | 0.0 | 0.0 | 0.00 | 0.00 | 0.00 | 92 | 1013.4 |
| 20260509064034 | 50 | 0 | 0.0 | 0.0 | 0.00 | 0.00 | 0.00 | 92 | 1013.3 |
| 20260509063535 | 50 | 0 | 0.0 | 0.0 | 0.00 | 0.00 | 0.00 | 91 | 1013.4 |
| 20260509063044 | 50 | 0 | 0.0 | 0.0 | 0.00 | 0.00 | 0.00 | 91 | 1013.4 |
| 20260509062533 | 50 | 0 | 0.0 | 0.0 | 0.00 | 0.00 | 0.00 | 92 | 1013.6 |
| 20260509062034 | 50 | 0 | 0.0 | 0.0 | 0.00 | 0.00 | 0.00 | 92 | 1013.5 |
| 20260509061547 | 50 | 0 | 0.0 | 0.0 | 0.00 | 0.00 | 0.00 | 92 | 1013.7 |
| 20260509061033 | 50 | 0 | 0.0 | 0.0 | 0.00 | 0.00 | 0.00 | 92 | 1013.7 |
| 20260509060533 | 50 | 0 | 0.0 | 0.0 | 0.00 | 0.00 | 0.00 | 91 | 1013.7 |
| 20260509055536 | 50 | 0 | 0.0 | 0.0 | 0.00 | 0.00 | 0.00 | 91 | 1014.0 |
| 20260509055037 | 50 | 0 | 0.0 | 0.0 | 0.00 | 0.00 | 0.00 | 92 | 1014.1 |
| 20260509054601 | 50 | 0 | 0.0 | 0.0 | 0.00 | 0.00 | 0.00 | 92 | 1014.0 |
| 20260509054039 | 50 | 0 | 0.0 | 0.0 | 0.00 | 0.00 | 0.00 | 91 | 1014.1 |
| 20260509053534 | 50 | 0 | 0.0 | 0.0 | 0.00 | 0.00 | 0.00 | 91 | 1014.0 |
| 20260509053044 | 50 | 0 | 0.0 | 0.0 | 0.00 | 0.00 | 0.00 | 90 | 1014.0 |
| 20260509052533 | 50 | 0 | 0.0 | 0.0 | 0.00 | 0.00 | 0.00 | 90 | 1014.1 |
| 20260509052033 | 50 | 0 | 0.0 | 0.0 | 0.00 | 0.00 | 0.00 | 90 | 1014.2 |
| 20260509051544 | 50 | 0 | 0.0 | 0.0 | 0.00 | 0.00 | 0.00 | 90 | 1014.3 |
| 20260509051034 | 50 | 0 | 0.0 | 0.0 | 0.00 | 0.00 | 0.00 | 90 | 1014.4 |
| 20260509050533 | 50 | 0 | 0.0 | 0.0 | 0.00 | 0.00 | 0.00 | 90 | 1014.4 |
| 20260509050055 | 50 | 0 | 0.0 | 0.0 | 0.00 | 0.00 | 0.00 | 90 | 1014.6 |
| 20260509045533 | 51 | 0 | 0.0 | 0.0 | 0.00 | 0.00 | 0.00 | 90 | 1014.6 |
| 20260509045033 | 51 | 0 | 0.0 | 0.0 | 0.00 | 0.00 | 0.00 | 90 | 1014.6 |
| 20260509044551 | 51 | 0 | 0.0 | 0.0 | 0.00 | 0.00 | 0.00 | 90 | 1014.7 |
| 20260509044033 | 51 | 0 | 0.0 | 1.0 | 0.00 | 0.00 | 0.00 | 90 | 1014.6 |
| 20260509043532 | 51 | 0 | 0.0 | 2.0 | 0.00 | 0.00 | 0.00 | 89 | 1014.5 |
| 20260509043046 | 51 | 0 | 0.0 | 2.0 | 0.00 | 0.00 | 0.00 | 89 | 1014.6 |
| 20260509042532 | 51 | 292 | 0.0 | 2.0 | 0.00 | 0.00 | 0.00 | 89 | 1014.6 |
| 20260509042034 | 51 | 0 | 0.0 | 2.0 | 0.00 | 0.00 | 0.00 | 89 | 1014.7 |
| 20260509041547 | 51 | 0 | 0.0 | 2.0 | 0.00 | 0.00 | 0.00 | 89 | 1014.7 |
| 20260509041034 | 51 | 0 | 0.0 | 2.0 | 0.00 | 0.00 | 0.00 | 89 | 1014.8 |
| 20260509040536 | 51 | 292 | 0.0 | 2.0 | 0.00 | 0.00 | 0.00 | 89 | 1014.7 |
| 20260509040055 | 51 | 0 | 0.0 | 1.0 | 0.00 | 0.00 | 0.00 | 89 | 1015.0 |
| 20260509035533 | 51 | 0 | 0.0 | 1.0 | 0.00 | 0.00 | 0.00 | 89 | 1015.0 |
| 20260509035034 | 51 | 0 | 0.0 | 1.0 | 0.00 | 0.00 | 0.00 | 88 | 1015.1 |
| 20260509034548 | 51 | 0 | 0.0 | 2.0 | 0.00 | 0.00 | 0.00 | 88 | 1015.1 |
| 20260509034033 | 52 | 0 | 0.0 | 2.0 | 0.00 | 0.00 | 0.00 | 88 | 1015.1 |
| 20260509033534 | 52 | 291 | 0.0 | 2.0 | 0.00 | 0.00 | 0.00 | 88 | 1015.2 |
| 20260509033047 | 52 | 0 | 0.0 | 0.0 | 0.00 | 0.00 | 0.00 | 87 | 1015.2 |
| 20260509032533 | 52 | 0 | 0.0 | 0.0 | 0.00 | 0.00 | 0.00 | 88 | 1015.3 |
| 20260509032034 | 52 | 0 | 0.0 | 0.0 | 0.00 | 0.00 | 0.00 | 88 | 1015.5 |
| 20260509031556 | 52 | 0 | 0.0 | 1.0 | 0.00 | 0.00 | 0.00 | 87 | 1015.4 |
| 20260509031037 | 52 | 0 | 0.0 | 1.0 | 0.00 | 0.00 | 0.00 | 87 | 1015.5 |
| 20260509030537 | 52 | 291 | 0.0 | 1.0 | 0.00 | 0.00 | 0.00 | 87 | 1015.5 |
| 20260509030052 | 52 | 0 | 0.0 | 1.0 | 0.00 | 0.00 | 0.00 | 86 | 1015.4 |
| 20260509025533 | 53 | 0 | 0.0 | 1.0 | 0.00 | 0.00 | 0.00 | 86 | 1015.3 |
| 20260509025033 | 53 | 291 | 0.0 | 1.0 | 0.00 | 0.00 | 0.00 | 86 | 1015.3 |
| 20260509024545 | 53 | 0 | 0.0 | 0.0 | 0.00 | 0.00 | 0.00 | 85 | 1015.5 |
| 20260509024033 | 53 | 0 | 0.0 | 1.0 | 0.00 | 0.00 | 0.00 | 86 | 1015.3 |
| 20260509023533 | 53 | 0 | 0.0 | 1.0 | 0.00 | 0.00 | 0.00 | 85 | 1015.3 |
| 20260509023055 | 54 | 0 | 0.0 | 1.0 | 0.00 | 0.00 | 0.00 | 85 | 1015.4 |
| 20260509022533 | 54 | 0 | 0.0 | 0.0 | 0.00 | 0.00 | 0.00 | 84 | 1015.3 |
| 20260509022033 | 54 | 0 | 0.0 | 1.0 | 0.00 | 0.00 | 0.00 | 83 | 1015.2 |
| 20260509021546 | 54 | 0 | 0.0 | 1.0 | 0.00 | 0.00 | 0.00 | 84 | 1015.2 |
| 20260509021035 | 54 | 0 | 0.0 | 1.0 | 0.00 | 0.00 | 0.00 | 83 | 1015.3 |
| 20260509020533 | 55 | 0 | 0.0 | 1.0 | 0.00 | 0.00 | 0.00 | 83 | 1015.0 |
| 20260509020050 | 55 | 0 | 0.0 | 1.0 | 0.00 | 0.00 | 0.00 | 83 | 1015.0 |
| 20260509015534 | 55 | 0 | 0.0 | 1.0 | 0.00 | 0.00 | 0.00 | 82 | 1015.0 |
| 20260509015036 | 56 | 0 | 0.0 | 2.0 | 0.00 | 0.00 | 0.00 | 82 | 1014.7 |
| 20260509014543 | 56 | 0 | 0.0 | 2.0 | 0.00 | 0.00 | 0.00 | 81 | 1014.8 |
| 20260509014037 | 56 | 0 | 0.0 | 2.0 | 0.00 | 0.00 | 0.00 | 80 | 1014.8 |
| 20260509013533 | 57 | 0 | 0.0 | 1.0 | 0.00 | 0.00 | 0.00 | 80 | 1015.0 |
| 20260509013108 | 57 | 0 | 0.0 | 1.0 | 0.00 | 0.00 | 0.00 | 79 | 1015.1 |
| 20260509012533 | 57 | 0 | 0.0 | 1.0 | 0.00 | 0.00 | 0.00 | 78 | 1015.0 |
| 20260509012033 | 57 | 0 | 0.0 | 1.0 | 0.00 | 0.00 | 0.00 | 77 | 1014.8 |
| 20260509011548 | 57 | 0 | 0.0 | 2.0 | 0.00 | 0.00 | 0.00 | 77 | 1014.8 |
| 20260509011032 | 57 | 0 | 0.0 | 2.0 | 0.00 | 0.00 | 0.00 | 77 | 1014.7 |